sat.trackr.live / text

‹ back to catalog

STARLINK-36926

NORAD 67999 · 2026-039P

PAYLOAD ACTIVE UNKNOWN

§ Identity

Operator
Country
US
Launch date
2026-02-27
Launch site
AFETR
Launch vehicle
Mass (kg)
RCS (m²)

Purposes: comms

External: N2YO · Heavens-Above · Gunter

§ Orbital elements

Epoch: 2026-05-24T21:38:28.392864Z

Period
94.27 min
Inclination
43.0028°
Eccentricity
0.0001179
Mean motion
15.27596627 rev/d
Perigee alt
482.2 km
Apogee alt
483.8 km
Semi-major
6,861.1 km
B*
5.3422e-4
RAAN
338.1300°
Arg perigee
279.1052°
Mean anomaly
80.9666°
Rev number
1,336

§ Raw data

STARLINK-369261 67999U 26039P   26144.90171751  .00014475  00000+0  53422-3 0  99972 67999  43.0028 338.1300 0001179 279.1052  80.9666 15.27596627 13369

JSON: /api/v1/satellites/67999 · /tle

For live sub-satellite position, see the globe view (requires WebGL).

§ Visibility from observer

Set your observer location to see the next 7 days of passes ≥ 10°. The values pass through the URL so the page stays shareable.

No JS? Fill the form by hand. The geolocation button needs JavaScript.